Find Starlink 36207

NORAD ID: 67014 Int'l Des: 2025-293 Owner: SPXS Country: US Constellation: starlink operational
LEOCIRCULAR

Aktuelle Ansicht

3D-Globus wird geladen...

Über Starlink 36207

Beschreibung wird geladen...

Nächste Überflüge

Passes for default location (London). Set your location on the main map for personalized predictions.

Höhenverlauf

Loading altitude history...

Zweizeiliger Elementsatz

1 67014U 25293M 26146.31592243 .00014151 00000-0 11902-2 0 9994
2 67014 70.0003 258.8025 0003174 270.7418 89.3377 14.98369041 26510
Epoch: 26. Mai 2026 • Age: 11 hours

Aktueller Status

Höhe 595.0 km
Geschwindigkeit 7.56 km/s
Subsatellitenpunkt -69.10°S, 25.48°E
Startdatum 10. Dez. 2025
Alter 0.4 years
Typ internet

Technische Details

Klassifizierung Payload
Masse 575.00 kg
Trockenmasse 530.00 kg
Gesamtmasse 575.00 kg
Länge 0.30 m
Durchmesser 4.10 m
Spannweite 29.00 m
Form Box + pan
Hersteller SPXS
Bus-Typ Starlink V2MO
Phasenstatus In Orbit
Besitzer/Staat SPXS/US

Most Searched